Regional Weather Roundup
Issued by NWS Cleveland, OH

Home | Current Version | Previous Version | Text Only | Print | Product List | Glossary Off
Versions: 1 2 3 4 5 6 7 8 9 10 11 12 13 14 15 16 17 18 19 20 21 22 23 24 25 26 27 28 29 30 31 32 33 34 35 36 37 38 39 40 41 42 43 44 45 46 47 48 49 50

000
ASUS41 KCLE 282012
RWRCLE
OHIO REGIONAL WEATHER ROUNDUP
NATIONAL WEATHER SERVICE WILMINGTON, OH
400 PM EDT SAT MAY 28 2016

NOTE: "FAIR" INDICATES FEW OR NO CLOUDS BELOW 12,000 FEET WITH NO
SIGNIFICANT WEATHER AND/OR OBSTRUCTIONS TO VISIBILITY.

OHZ001>008-015>018-024>027-034-035-043-044-282100-
   NORTHWEST OHIO

CITY           SKY/WX    TMP DP  RH WIND       PRES   REMARKS
DEFIANCE       FAIR      85  59  41 S18G26    30.01F
FINDLAY        TSTM      73  64  73 S22G36    30.07R
TOLEDO EXPRESS FAIR      89  58  34 W16G22    30.01S
TOLEDO EXEC    FAIR      90  57  32 SW16      30.02S
LIMA           LGT RAIN  71  70  96 S10       30.07F
$$

OHZ009>014-019>023-028>033-038-089-282100-
   NORTHEAST OHIO

CITY           SKY/WX    TMP DP  RH WIND       PRES   REMARKS
CLE-HOPKINS    FAIR      87  66  49 S9        30.06F
CLE-LAKEFRONT  FAIR      89  66  46 SW8       30.03F HX  91
CUY CO. ARPT   PTSUNNY   90  66  45 SW9       30.06F HX  92
LORAIN-ELYRIA  FAIR      88  63  43 S13       30.04F
ASHTABULA      HVY RAIN  72  68  87 SE7       30.11S FOG
AKRON-CANTON   FAIR      86  65  49 SW10      30.08F
WOOSTER        FAIR      87  64  46 VRB7      30.07F
MANSFIELD      FAIR      86  64  47 S12       30.07F
YOUNGSTOWN     FAIR      86  68  54 VRB6      30.08F
$$

OHZ042-051>053-060>062-070>072-077>081-282100-
  SOUTHWEST OHIO

CITY           SKY/WX    TMP DP  RH WIND       PRES   REMARKS
CINC-COVINGTON PTSUNNY   83  65  54 S14       30.08
CINC-LUNKEN    PTSUNNY   83  68  60 S12       30.06F
HAMILTON       PTSUNNY   84  68  58 VRB3      30.07F
DAYTON         PTSUNNY   78  70  76 S9        30.08F
WRIGHT-PAT AFB FAIR      82  70  66 SW3       30.06F
DAYTON GENERAL FAIR      82  64  54 VRB7      30.07F
WILMINGTON     FAIR      82  65  56 SW9       30.08F
$$

OHZ036-037-039>041-045>050-054>059-063>069-073>076-082>088-282100-
  CENTRAL AND SOUTHEAST OHIO

CITY           SKY/WX    TMP DP  RH WIND       PRES   REMARKS
COLUMBUS       LGT RAIN  77  67  71 N10       30.06F
OSU AIRPORT    PTSUNNY   74  67  78 NE6       30.08S
BOLTON FIELD   RAIN      70  66  88 S23G46    30.11R VSB 1
RICKENBACK AFB FAIR      79  66  63 W21G29    30.06S
NEWARK         FAIR      89  65  44 S9        30.06F HX  91
MARION         CLOUDY    76  67  73 S7        30.10R
LANCASTER      FAIR      87  65  47 S12       30.07F
ZANESVILLE     FAIR      87  64  46 VRB5      30.08F
NEW PHILLY     FAIR      87  65  47 VRB5      30.08F
$$




USA.gov is the U.S. government's official web portal to all federal, state and local government web resources and services.